Location: M�nchwilen
(47.4779°N, 8.9957°E)
Time: 17:52:05
(UTC+00:00)

Daily predictions for brighter satellites

Satellite Brightness Start Highest point End
(mag) Time Altitude Azimuth Time Altitude Azimuth Time Altitude Azimuth
Cosmos 1975 Rocket 3.9 19:59:19 10° SSE 20:03:15 34° E 20:07:13 10° NNE
Cosmos 1470 3.1 20:00:56 10° NNW 20:04:55 71° W 20:08:50 10° S
ATLAS CENTAUR R/B 3.2 20:03:26 10° NNW 20:06:58 24° NE 20:10:38 10° E
Meteor 1-21 4.3 20:01:45 10° S 20:07:25 85° E 20:13:04 10° NNE
SPOT 5 4.0 20:03:03 10° SE 20:07:34 33° ENE 20:11:56 10° N
Cosmos 1674 3.6 20:04:28 10° SSE 20:07:43 29° E 20:10:58 10° NNE
Cosmos 1980 Rocket 4.0 20:05:28 10° WSW 20:10:40 37° NW 20:15:53 10° NNE
Cosmos 1674 Rocket 4.5 20:06:45 10° SSW 20:11:03 52° WNW 20:15:21 10° N
Terra 3.2 20:11:03 10° ESE 20:15:00 27° ENE 20:18:58 10° N
Cosmos 2278 Rocket 4.4 20:12:00 10° N 20:15:11 15° NE 20:18:21 10° ENE
Cosmos 1726 2.9 20:14:37 10° NNW 20:18:09 48° W 20:21:40 10° S
Lacrosse 5 2.6 20:15:05 10° WNW 20:19:54 45° SW 20:24:43 10° SSE
Cosmos 1315 Rocket 3.6 20:16:42 10° NNW 20:20:45 55° W 20:24:46 10° S
Cosmos 1844 Rocket 3.0 20:19:54 10° NNW 20:25:32 60° ENE 20:30:53 11° SE
Cosmos 1452 Rocket 3.5 20:20:51 10° SSW 20:26:07 78° ESE 20:31:26 10° NNE
SL-8 R/B 3.7 20:22:54 10° WNW 20:27:43 83° SSW 20:32:31 10° ESE
Cosmos 2100 Rocket 4.2 20:23:42 10° N 20:30:04 66° ENE 20:36:20 10° SSE
ARIANE 5 R/B 2.7 20:29:11 11° SSE 20:33:29 68° ENE 20:37:58 10° N
NOSS 3-2 (C) 3.9 20:28:22 10° SW 20:34:01 67° NW 20:40:39 10° NE
Cosmos 1340 4.1 20:32:11 13° SE 20:34:36 22° E 20:37:33 10° NE
Cosmos 1850 Rocket 4.1 20:29:49 10° NNW 20:35:09 85° WSW 20:40:12 11° SSE
Cosmos 1908 3.3 20:33:44 10° N 20:37:36 64° E 20:40:58 13° SSE
FALCON 9 DEB 3.2 20:34:29 10° SW 20:37:49 51° SE 20:41:09 10° ENE
ATLAS 3B R/B 3.3 20:32:41 10° S 20:38:20 32° ESE 20:44:08 10° NE
Cosmos 2263 Rocket 3.9 20:33:49 10° NW 20:38:32 27° WSW 20:43:15 10° SSW
SPOT 1/Viking Rocket 3.8 20:34:25 10° S 20:39:32 69° WSW 20:44:41 10° NNW
Cosmos 1758 4.3 20:35:57 10° NNW 20:39:45 45° W 20:43:32 10° SSW
FALCON 9 DEB 4.4 20:40:01 15° SSE 20:40:47 17° SE 20:42:51 10° E
Geosat 4.0 20:37:26 12° SSE 20:42:02 85° ENE 20:47:06 10° NNW
Cosmos 1544 Rocket 3.8 20:40:20 10° N 20:44:45 56° ENE 20:48:22 15° SSE
CZ-2C R/B 4.1 20:40:21 10° N 20:45:07 73° WNW 20:49:53 10° SSW
Spot 2 Rocket 3.5 20:40:29 10° SSE 20:45:29 84° WSW 20:50:37 10° NNW
Cosmos 1707 4.2 20:43:25 10° SW 20:47:03 38° WNW 20:50:44 10° N
Cosmos 2173 Rocket 4.1 20:41:40 10° N 20:48:05 83° E 20:54:11 11° S
Lacrosse 5 rocket 1.5 20:45:01 10° SSW 20:48:26 37° SE 20:51:47 10° ENE
ERS-1 Rocket 3.0 20:44:31 13° SSE 20:49:00 73° ENE 20:54:03 10° N
Cosmos 1455 Rocket 3.2 20:45:09 10° NNW 20:49:37 81° W 20:53:47 12° S
In-Cosmos 22 4.4 20:44:42 10° SSW 20:49:57 70° WNW 20:55:16 10° N
Cosmos 1331 Rocket 4.1 20:44:50 10° S 20:49:57 58° ESE 20:55:08 10° NNE
FALCON 9 DEB 4.3 20:50:01 19° SE 20:50:10 19° SE 20:52:26 10° E
Cosmos 2016 Rocket 4.2 20:45:09 10° N 20:51:11 59° ENE 20:56:17 15° SSE
BREEZE-M DEB (TANK) 2.1 20:57:56 10° SW 21:00:17 40° SE 21:04:38 10° ENE
Cosmos 2333 Rocket 2.7 20:55:53 10° S 21:01:10 42° ESE 21:06:32 10° NE
USA 215 4.0 20:55:40 10° ENE 21:01:17 30° SE 21:06:54 10° S
Cosmos 1725 Rocket 4.1 20:57:12 10° N 21:03:20 63° ENE 21:08:13 17° SSE
Cosmos 1953 3.0 21:02:50 10° NNW 21:06:49 53° W 21:10:22 12° S
Cosmos 1626 2.0 21:04:14 14° S 21:07:24 85° E 21:11:07 10° N
Cosmos 1302 Rocket 4.4 21:04:49 15° S 21:08:53 43° ESE 21:13:51 10° NE
Meteor 2-10 Rocket 4.5 21:05:49 10° N 21:10:25 33° ENE 21:13:41 17° SE
SL-14 R/B 3.4 21:08:38 18° S 21:11:29 60° E 21:15:28 10° NNE
Cosmos 2219 Rocket 2.6 21:07:37 14° S 21:12:15 44° ESE 21:17:36 10° NE
Cosmos 1844 3.7 21:06:57 10° NNW 21:12:32 76° WSW 21:16:41 18° SSE
Cosmos 1867 4.5 21:11:16 10° NNW 21:16:31 43° NE 21:21:11 13° ESE
CENTAUR R/B 4.2 21:12:05 10° WSW 21:17:57 40° NNW 21:24:54 10° NE
Cosmos 1536 Rocket 3.7 21:15:05 19° S 21:18:12 60° E 21:22:36 10° NNE
Cosmos 1802 Rocket 4.1 21:11:58 10° NNW 21:18:14 77° W 21:23:39 15° S
CZ-4B DEB 4.1 21:19:02 26° SSE 21:20:40 89° E 21:23:52 10° NNW
DNEPR-1 R/B 3.5 21:19:41 10° NW 21:23:55 83° NE 21:26:37 23° SE
Meteor 1-24 Rocket 4.0 21:21:07 20° SSE 21:24:33 48° E 21:29:48 10° NNE
Cosmos 1025 Rocket 3.5 21:22:42 10° SSW 21:27:02 61° WNW 21:31:23 10° N
Cosmos 389 Rocket 3.8 21:25:54 10° N 21:28:53 27° ENE 21:30:14 21° ESE
Cosmos 2237 Rocket 3.7 21:27:22 16° ESE 21:29:03 19° E 21:32:51 10° ENE
Resurs 01 Rocket 4.4 21:32:01 10° W 21:33:05 11° W 21:34:09 10° WNW
Cosmos 1461 4.1 21:30:18 10° NW 21:34:00 30° WSW 21:36:05 19° SSW
Cosmos 2360 Rocket 2.9 21:29:06 10° SW 21:34:38 56° WNW 21:40:13 10° NNE
Cosmos 2228 3.7 21:30:28 10° N 21:34:42 44° ENE 21:36:56 24° SE
SL-16 R/B 4.2 21:29:57 10° WSW 21:34:56 30° NW 21:39:55 10° NNE
USA 267 3.9 21:29:45 10° E 21:36:05 54° NNE 21:42:26 10° NW
Cosmos 2322 Rocket 3.8 21:31:40 10° WSW 21:36:54 36° NW 21:42:08 10° NNE
Cosmos 1486 Rocket 4.3 21:36:55 10° NNW 21:42:05 59° ENE 21:45:12 23° SE
Cosmos 1455 3.7 21:40:59 10° NNE 21:44:13 25° ENE 21:45:44 20° ESE
SPOT 5 4.1 21:41:32 14° SSW 21:45:34 37° W 21:50:09 10° NNW
ATLAS CENTAUR R/B 1.7 21:41:52 10° NW 21:46:10 62° SW 21:48:22 28° SSE
Cosmos 968 Rocket 3.4 21:45:29 10° NNW 21:50:38 88° ENE 21:53:28 27° SSE
Terra 2.7 21:49:22 18° SSW 21:52:34 41° W 21:57:05 10° NNW
Cosmos 1300 3.2 21:48:54 10° NNW 21:52:38 51° W 21:54:30 26° SSW
COSMOS 2428 2.7 21:48:21 16° SSW 21:52:57 73° ESE 21:58:43 10° NNE
Cosmos 2322 3.8 21:49:08 10° SSW 21:54:47 79° WNW 22:00:29 10° NNE
FALCON 9 DEB 2.9 21:54:51 44° S 21:55:27 54° SE 21:58:31 10° ENE
Cosmos 1992 Rocket 4.3 21:54:03 27° SSE 21:56:32 47° ESE 22:01:33 10° NNE
Uosat 12 SS-18 rocket 4.2 21:54:41 23° SSW 21:57:20 62° ESE 22:02:17 10° NE
Cosmos 405 4.3 21:57:10 10° NNW 22:00:15 31° W 22:01:49 21° SW
Cosmos 2278 Rocket 2.5 21:54:53 10° NNW 22:00:31 60° ENE 22:04:01 23° SE
ATLAS CENTAUR R/B 3.9 21:59:32 23° SE 22:01:25 27° ESE 22:09:42 10° NE
Cosmos 2058 Rocket 4.0 22:01:16 10° N 22:05:25 37° ENE 22:07:18 25° ESE
Cosmos 1844 Rocket 4.3 22:04:33 10° NW 22:08:59 24° WSW 22:12:33 14° SSW
Cosmos 1340 4.4 22:06:52 11° SW 22:10:01 29° WNW 22:13:21 10° N
Cosmos 1346 Rocket 2.7 22:11:16 34° S 22:12:55 89° ESE 22:16:58 10° NNE
Cosmos 1726 Rocket 3.6 22:08:36 10° N 22:13:04 70° E 22:14:53 35° SSE
Cosmos 2233 Rocket 4.2 22:07:20 10° NNW 22:13:24 62° W 22:17:18 23° SSW
GEOS 3 Rocket 3.6 22:11:17 27° SE 22:14:21 83° SW 22:19:44 10° NW
FALCON 9 DEB 4.5 22:11:30 10° W 22:14:46 41° NNW 22:18:03 10° ENE
FALCON 9 DEB 2.9 22:12:57 10° WSW 22:16:02 79° NNW 22:19:08 10° ENE
FALCON 9 DEB 2.7 22:18:01 23° WSW 22:19:50 89° SE 22:22:58 10° ENE
NOSS 0 Rocket 4.0 22:16:43 26° S 22:20:16 62° ESE 22:26:26 10° NE
SL-4 R/B 3.2 22:22:18 24° ESE 22:22:18 24° ESE 22:24:19 10° E
FALCON 9 DEB 3.0 22:22:23 10° WSW 22:25:30 72° NNW 22:28:37 10° ENE
Cosmos 1606 Rocket 3.7 22:23:01 10° NNW 22:27:28 66° W 22:29:16 34° SSW
Lacrosse 5 rocket 2.5 22:24:05 10° W 22:27:30 37° NNW 22:30:52 10° NE
ATLAS 3B R/B 3.1 22:22:06 10° SW 22:28:37 63° NW 22:35:23 10° NE
Cosmos 1892 Rocket 3.5 22:29:33 38° S 22:31:10 75° E 22:35:37 10° NNE
SJ 16-02 3.5 22:28:02 10° N 22:31:14 19° NE 22:34:21 10° E
ALOS 2 2.8 22:32:40 35° SE 22:34:22 65° ENE 22:38:44 10° N
Cosmos 1980 3.7 22:36:00 30° S 22:38:49 68° ESE 22:44:29 10° NNE
Cosmos 1441 Rocket 3.7 22:38:21 40° SE 22:39:04 45° E 22:42:45 10° NNE
Meteor 2-1 Rocket 4.2 22:34:03 10° N 22:39:35 74° ENE 22:42:13 32° SSE
Cosmos 1943 Rocket 3.7 22:35:13 10° N 22:39:59 29° NE 22:44:43 10° ESE
Cosmos 1703 3.6 22:39:40 41° SE 22:40:31 50° E 22:44:22 10° NNE
Spot 4 4.0 22:39:08 34° S 22:41:06 65° WSW 22:45:53 10° NNW
Cosmos 1503 Rocket 4.0 22:36:06 10° NNW 22:41:30 79° WSW 22:43:52 34° S
USA 215 3.2 22:38:15 10° NE 22:44:50 90° N 22:51:23 10° WSW
Cosmos 2333 Rocket 3.6 22:40:12 10° WSW 22:45:31 37° NW 22:50:50 10° NNE
SAR-Lupe-2 4.1 22:46:40 10° NNE 22:50:06 41° E 22:50:27 39° ESE
Cosmos 1328 4.3 22:52:30 38° SE 22:53:13 43° E 22:56:56 10° NNE
Cosmos 2219 Rocket 3.6 22:51:07 10° WSW 22:56:18 36° NW 23:01:31 10° NNE
Cosmos 1464 Rocket 4.1 22:52:25 10° NNW 22:58:47 75° W 23:02:03 31° S
Cosmos 1867 4.3 22:55:01 10° NW 23:00:06 39° WSW 23:01:49 31° SSW
Cosmos 1626 Rocket 3.9 22:59:58 39° SSE 23:01:15 54° E 23:05:37 10° NNE
Cosmos 1607 4.0 22:55:34 10° NW 23:01:58 70° WSW 23:05:04 31° SSE
Thor Agena Rocket 4.1 22:57:41 10° NNE 23:02:46 46° E 23:04:38 32° SSE
Cosmos 389 Rocket 4.4 23:00:53 10° NW 23:03:20 19° W 23:04:01 18° WSW
Cosmos 2346 Rocket 4.4 23:00:49 31° S 23:03:56 89° WNW 23:10:10 10° N
COBE Rocket 4.3 23:04:31 33° SSW 23:06:30 53° W 23:11:22 10° NNW
Cosmos 1602 Rocket 4.2 23:06:53 35° SE 23:08:11 46° E 23:12:29 10° NNE
SL-16 R/B 2.9 23:06:18 31° SSE 23:08:11 40° ESE 23:13:26 10° NE
Cosmos 2237 Rocket 2.3 23:09:09 25° SW 23:12:28 75° WNW 23:18:08 10° NNE
MTI 3.5 23:11:05 10° NNE 23:14:09 87° W 23:14:12 86° SW
Meteor 1-4 Rocket 2.3 23:12:48 10° N 23:16:19 81° E 23:16:45 65° SSE
USA 267 3.2 23:14:48 23° SE 23:19:01 67° SW 23:25:33 10° WNW
Cosmos 1455 3.7 23:16:33 10° NNW 23:19:45 26° W 23:20:36 23° WSW
Cosmos 1816 Rocket 4.4 23:17:16 33° S 23:20:16 87° E 23:26:26 10° N
Cosmos 2369 Rocket 3.7 23:17:24 10° NNW 23:22:33 33° NE 23:27:39 10° ESE
Cosmos 1184 Rocket 4.1 23:22:45 27° W 23:23:27 30° WNW 23:26:23 10° N
Okean 1-7 Rocket 4.2 23:27:36 31° SW 23:29:21 49° WNW 23:33:41 10° N
FALCON 9 DEB 4.4 23:28:19 10° W 23:31:16 37° NNW 23:34:14 10° NE
Cosmos 1777 Rocket 4.0 23:26:05 10° NNW 23:31:21 70° WSW 23:33:25 37° S
Cosmos-2242 3.7 23:27:21 10° N 23:31:39 48° ENE 23:33:23 31° SE
Cosmos 2034 Rocket 4.2 23:26:46 10° NNW 23:32:50 59° W 23:35:44 31° SSW
Cosmos 1408 4.1 23:37:17 22° ESE 23:38:05 24° E 23:41:06 10° NE
Cosmos 2297 3.6 23:37:54 10° NNW 23:43:35 88° WSW 23:46:30 30° SSE
Cosmos 1812 Rocket 3.5 23:39:38 10° NNW 23:43:59 75° W 23:45:17 45° S
Cosmos 2278 Rocket 3.6 23:39:43 10° NW 23:44:10 24° WSW 23:45:51 21° SW
Meteor 1-11 4.1 23:44:20 35° S 23:46:52 89° E 23:52:29 10° NNE
Meteor 1-27 4.3 23:41:58 10° N 23:47:33 72° ENE 23:50:26 29° SSE
Cosmos 724 4.3 23:41:31 10° NW 23:47:41 74° WSW 23:50:57 29° SSE
